[[[{"header":{"parameterUnit":"kt","parameterCategory":2,"dx":1,"dy":1,"la1":30.253999710083008,"la2":30.299108505249023,"lo1":-89.0895004272461,"lo2":-89.04439544677734,"nx":28,"ny":28,"refTime":"2022-10-19T09:00:00:Z","depth":0,"parameterNumber":1,"parameterNumberName":"U-component_of_WINDS"},"data":[0.5745,0.562,0.5579,0.5416,0.5351,0.5232,0.5175,0.5098,0.5024,0.4875,0.4781,0.4724,0.4631,0.4506,0.44,0.4376,0.4333,0.4321,0.4294,0.4389,0.4399,0.4408,0.4435,0.4314,0.4313,0.42,0.4199,0.4199,0.5823,0.5758,0.566,0.5536,0.5451,0.5439,0.5338,0.5266,0.5159,0.5067,0.4972,0.4836,0.4721,0.4629,0.4511,0.4449,0.4433,0.4419,0.4421,0.4406,0.4507,0.4536,0.4434,0.4434,0.4434,0.4434,0.4434,0.4434,0.5953,0.588,0.578,0.5672,0.5598,0.5515,0.5436,0.5368,0.5269,0.5142,0.5108,0.4984,0.4881,0.4714,0.4646,0.4547,0.4552,0.4522,0.4513,0.4505,0.4504,0.4671,0.4524,0.4524,0.4525,0.4525,0.4525,0,0.6034,0.6004,0.5906,0.5796,0.5714,0.5624,0.5532,0.5483,0.5399,0.532,0.5201,0.5125,0.4973,0.4854,0.4732,0.4665,0.4637,0.463,0.4608,0.4621,0.465,0.463,0.4795,0.4632,0.4633,0.4634,0.4634,0.4634,0.6159,0.6079,0.5952,0.5889,0.5828,0.5727,0.5657,0.5589,0.5517,0.5392,0.5329,0.521,0.5111,0.4925,0.4839,0.4724,0.4707,0.465,0.4689,0.4708,0.4702,0.4706,0.4697,0.4642,0.4641,0.4641,0.464,0,0.6233,0.6163,0.6023,0.5904,0.5871,0.579,0.5686,0.5608,0.5548,0.5431,0.54,0.5303,0.5186,0.5108,0.4957,0.492,0.478,0.4769,0.4816,0.4808,0.4747,0.4753,0.4567,0.4538,0.4666,0.4665,0.4664,0,0.631,0.6206,0.6106,0.6028,0.591,0.5844,0.5728,0.5664,0.5574,0.5481,0.5439,0.5353,0.5267,0.5169,0.5113,0.4985,0.4957,0.4919,0.4905,0.4921,0.4925,0.4876,0.488,0.4879,0.488,0.4881,0.4882,0,0.6431,0.6254,0.6129,0.6077,0.5936,0.5878,0.5817,0.5714,0.5644,0.5541,0.5495,0.5379,0.5315,0.5225,0.5154,0.5184,0.4997,0.5021,0.4957,0.4959,0.4915,0.4918,0.4778,0.4883,0.4883,0.4884,0.4884,0,0.6479,0.638,0.6209,0.6091,0.6046,0.5963,0.5845,0.5756,0.565,0.561,0.5528,0.5488,0.5371,0.5402,0.5238,0.5296,0.5235,0.5188,0.5182,0.5162,0.5197,0.5124,0.5002,0.4984,0.5151,0.5153,0.5155,0,0.6636,0.6443,0.6384,0.6222,0.6122,0.6081,0.5986,0.5894,0.5833,0.5737,0.5668,0.5558,0.5564,0.5518,0.5448,0.537,0.5296,0.5379,0.5235,0.5231,0.5263,0.515,0.5149,0.5039,0.5183,0.518,0.5178,0,0.6747,0.6577,0.6552,0.6489,0.6357,0.6271,0.6164,0.604,0.598,0.588,0.5785,0.5629,0.5626,0.555,0.5504,0.5435,0.5344,0.544,0.5436,0.5423,0.5191,0.5191,0.5173,0.5328,0.5325,0.5322,0.52,0,0.6832,0.6726,0.6657,0.6517,0.644,0.6334,0.6251,0.6181,0.6145,0.6082,0.5941,0.584,0.571,0.5669,0.5632,0.55,0.5508,0.5506,0.5525,0.5454,0.5411,0.5393,0.5596,0.5596,0.5596,0.5596,0,0,0.6997,0.6843,0.6779,0.6672,0.6602,0.6558,0.6451,0.6377,0.6228,0.6179,0.6191,0.5955,0.5871,0.5708,0.5679,0.5627,0.5594,0.5621,0.5489,0.5477,0.5466,0.5422,0.5406,0.5597,0.5597,0.5597,0.5597,0,0.701,0.6933,0.683,0.6751,0.6633,0.657,0.6546,0.6419,0.6372,0.6234,0.6195,0.61,0.5912,0.5828,0.5761,0.5641,0.5614,0.5608,0.5572,0.5493,0.5481,0.5471,0.5425,0.5411,0.5597,0.5597,0.5597,0,0.7103,0.7011,0.6953,0.6793,0.6713,0.661,0.6613,0.6503,0.6425,0.6376,0.6238,0.617,0.605,0.5907,0.584,0.5846,0.5637,0.5688,0.5685,0.5674,0.5592,0.5578,0.5566,0.5728,0.5729,0.5729,0,0,0.7124,0.7025,0.6902,0.6789,0.6742,0.6647,0.6583,0.654,0.6436,0.6394,0.6304,0.6202,0.6091,0.6019,0.5911,0.5766,0.5733,0.5707,0.5701,0.5696,0.5683,0.5601,0.5587,0.5732,0.5732,0.5733,0,0,0.7133,0.6988,0.6971,0.6829,0.6733,0.6601,0.6534,0.6508,0.6403,0.6405,0.6322,0.6291,0.6156,0.6089,0.6141,0.5915,0.5936,0.5922,0.5963,0.5954,0.5948,0.5964,0.6123,0,0,0,0,0,0.7102,0.7006,0.6993,0.6956,0.6751,0.6611,0.6583,0.6515,0.6533,0.6481,0.6402,0.6378,0.61,0.6144,0.6108,0.6048,0.5772,0.5765,0.5759,0.5777,0.5769,0.5761,0,0,0,0,0,0,0.7088,0.7044,0.6995,0.6861,0.6814,0.6613,0.6628,0.6606,0.6537,0.6534,0.6394,0.6374,0.631,0.6158,0.6126,0.6071,0.6134,0.577,0.5764,0.5758,0.5774,0.5767,0.5761,0,0,0,0,0,0.7076,0.704,0.6729,0.6861,0.6821,0.6708,0.6631,0.6613,0.6557,0.6434,0.6412,0.6512,0.6311,0.6279,0.6139,0.6088,0.6156,0.6144,0.5766,0.5761,0.5757,0.5771,0,0,0,0,0,0,0.7067,0.7021,0.6719,0.6704,0.6893,0.6718,0.6688,0.6619,0.6459,0.6438,0.6548,0.6548,0.631,0.6285,0.6261,0.6097,0.6173,0.6161,0.6154,0.5762,0.5758,0.5755,0,0,0,0,0,0,0.704,0.7009,0.6712,0.6755,0.6744,0.6727,0.6701,0.657,0.6458,0.6582,0.6578,0.655,0.6345,0.6289,0.627,0.607,0.6187,0.6176,0.6168,0.6163,0.5759,0.5756,0,0,0,0,0,0,0.7026,0.6999,0.6758,0.675,0.674,0.6566,0.661,0.6402,0.6499,0.659,0.6506,0.6509,0.6349,0.6329,0.6277,0.6085,0.6074,0.6186,0.6179,0.6173,0.617,0,0,0,0,0,0,0,0.7014,0.7209,0.6809,0.6746,0.6738,0.6565,0.6561,0.6557,0.65,0.6503,0.6505,0.6507,0.6252,0.6239,0.6227,0.6097,0,0,0.6188,0.6182,0,0,0,0,0,0,0,0,0.7219,0.7212,0.6809,0.6806,0.6803,0.6564,0.6561,0.6558,0.65,0.6503,0.6505,0.6507,0.6248,0.6238,0.6228,0,0,0,0,0,0,0,0,0,0,0,0,0,0,0,0.6809,0.6806,0,0.6564,0.6561,0.6558,0.6501,0.6502,0.6504,0.6506,0.6245,0.6237,0.6229,0,0,0,0,0,0,0,0,0,0,0,0,0,0,0,0,0,0,0,0,0,0,0,0,0,0,0,0,0,0,0,0,0,0,0,0,0,0,0,0,0,0,0,0,0,0,0,0,0,0,0,0,0,0,0,0,0,0,0,0,0,0,0,0,0,0,0,0,0]}],[{"header":{"parameterUnit":"kt","parameterCategory":2,"dx":1,"dy":1,"la1":30.253999710083008,"la2":30.299108505249023,"lo1":-89.0895004272461,"lo2":-89.04439544677734,"nx":28,"ny":28,"refTime":"2022-10-19T09:00:00:Z","depth":0,"parameterNumber":2,"parameterNumberName":"V-component_of_WINDS"},"data":[-17.0096,-17.0441,-17.0434,-17.0821,-17.0878,-17.1139,-17.1229,-17.1343,-17.143,-17.1736,-17.1909,-17.193,-17.2008,-17.2207,-17.239,-17.2393,-17.2472,-17.2602,-17.2584,-17.2015,-17.1935,-17.1859,-17.1778,-17.262,-17.2621,-17.3175,-17.318,-17.3184,-16.9682,-16.9744,-16.9947,-17.0137,-17.0309,-17.0179,-17.0316,-17.0468,-17.0703,-17.0812,-17.0982,-17.1248,-17.1454,-17.1487,-17.1682,-17.1837,-17.1784,-17.1891,-17.1878,-17.1892,-17.1284,-17.1198,-17.1931,-17.1931,-17.1931,-17.193,-17.193,-17.193,-16.8925,-16.9132,-16.9242,-16.9461,-16.9552,-16.9678,-16.9872,-16.9894,-17.0088,-17.0295,-17.024,-17.0504,-17.0606,-17.0832,-17.0903,-17.1105,-17.0983,-17.1094,-17.1122,-17.1151,-17.1186,-17.0389,-17.1136,-17.1134,-17.1132,-17.113,-17.1129,0,-16.8367,-16.8345,-16.8538,-16.873,-16.8888,-16.9033,-16.9163,-16.9282,-16.9224,-16.9386,-16.9619,-16.9749,-17.0006,-17.0219,-17.0397,-17.0446,-17.0321,-17.0306,-17.0382,-17.0414,-17.0421,-17.0421,-16.943,-17.0284,-17.0276,-17.0271,-17.0267,-17.0264,-16.7602,-16.7844,-16.7952,-16.8089,-16.8157,-16.8378,-16.8506,-16.8436,-16.8575,-16.8721,-16.8904,-16.9118,-16.9285,-16.9654,-16.9669,-16.9859,-16.9799,-17.0127,-16.9826,-16.9847,-16.9804,-16.9791,-16.9814,-17.0186,-17.0196,-17.0204,-17.0211,0,-16.7172,-16.7153,-16.7524,-16.7604,-16.7631,-16.7887,-16.7952,-16.8153,-16.8149,-16.8425,-16.8484,-16.8478,-16.8704,-16.8666,-16.8915,-16.8887,-16.9302,-16.9239,-16.9267,-16.9253,-16.9542,-16.9516,-17.0489,-17.0612,-16.9739,-16.9747,-16.9754,0,-16.6511,-16.6831,-16.6783,-16.6999,-16.735,-16.7272,-16.7621,-16.7652,-16.7739,-16.7955,-16.7808,-16.8012,-16.793,-16.8129,-16.8088,-16.842,-16.8466,-16.8464,-16.845,-16.8479,-16.8479,-16.8547,-16.8507,-16.8407,-16.8402,-16.8397,-16.8393,0,-16.5841,-16.6188,-16.6539,-16.6614,-16.6729,-16.6894,-16.6949,-16.7044,-16.7169,-16.7323,-16.7403,-16.7587,-16.7689,-16.7832,-16.7779,-16.7577,-16.8183,-16.7893,-16.8181,-16.8183,-16.8317,-16.8309,-16.9182,-16.8387,-16.8386,-16.8384,-16.8382,0,-16.5303,-16.5466,-16.5978,-16.6069,-16.6162,-16.6392,-16.657,-16.6758,-16.6869,-16.6859,-16.6979,-16.6874,-16.7161,-16.6877,-16.727,-16.7022,-16.7129,-16.7152,-16.7172,-16.7195,-16.6878,-16.7375,-16.821,-16.8296,-16.7217,-16.7207,-16.7198,0,-16.4541,-16.5051,-16.4987,-16.5473,-16.5702,-16.5522,-16.5775,-16.5877,-16.5886,-16.6078,-16.6082,-16.6302,-16.6082,-16.6144,-16.6344,-16.6357,-16.668,-16.6312,-16.6586,-16.6597,-16.6564,-16.7332,-16.7466,-16.8032,-16.7073,-16.7087,-16.7096,0,-16.3947,-16.4085,-16.4177,-16.4258,-16.4384,-16.4574,-16.4864,-16.5065,-16.5197,-16.5327,-16.5567,-16.5872,-16.5718,-16.5823,-16.5756,-16.5967,-16.6459,-16.5772,-16.5773,-16.5897,-16.7007,-16.7133,-16.7229,-16.6367,-16.6382,-16.6394,-16.6997,0,-16.314,-16.3391,-16.3637,-16.3822,-16.3962,-16.4263,-16.4224,-16.4376,-16.4299,-16.4299,-16.465,-16.4721,-16.4921,-16.5017,-16.4943,-16.5437,-16.5347,-16.518,-16.4899,-16.5403,-16.56,-16.5681,-16.4608,-16.46,-16.4593,-16.4587,0,0,-16.2416,-16.2774,-16.2693,-16.2973,-16.3086,-16.2893,-16.3218,-16.3305,-16.3486,-16.3567,-16.341,-16.3853,-16.3916,-16.4345,-16.4499,-16.458,-16.4664,-16.4489,-16.5163,-16.5228,-16.5287,-16.5499,-16.5584,-16.4574,-16.4571,-16.4569,-16.4566,0,-16.2113,-16.2189,-16.2513,-16.26,-16.2726,-16.2711,-16.2789,-16.2878,-16.2893,-16.3236,-16.3068,-16.3272,-16.3627,-16.3717,-16.3809,-16.4437,-16.4297,-16.45,-16.4853,-16.5092,-16.5167,-16.5232,-16.5455,-16.5537,-16.4549,-16.455,-16.4551,0,-16.1521,-16.1589,-16.1741,-16.1991,-16.207,-16.231,-16.2007,-16.2272,-16.2448,-16.2217,-16.256,-16.2593,-16.2709,-16.312,-16.3302,-16.3164,-16.3965,-16.3704,-16.3748,-16.3767,-16.3996,-16.4085,-16.4164,-16.3119,-16.3114,-16.311,0,0,-16.1264,-16.1496,-16.1544,-16.1922,-16.1985,-16.1966,-16.2088,-16.2023,-16.2133,-16.2178,-16.2218,-16.2329,-16.2532,-16.2669,-16.2858,-16.3316,-16.3332,-16.353,-16.3597,-16.3652,-16.3701,-16.3945,-16.4034,-16.3092,-16.3091,-16.3091,0,0,-16.1139,-16.1211,-16.1114,-16.1549,-16.1662,-16.1731,-16.1963,-16.1844,-16.2011,-16.1971,-16.1869,-16.1895,-16.2277,-16.2316,-16.2079,-16.2757,-16.248,-16.2535,-16.2718,-16.2803,-16.2869,-16.2851,-16.1775,0,0,0,0,0,-16.0808,-16.1202,-16.1114,-16.118,-16.1493,-16.1781,-16.182,-16.1748,-16.1554,-16.1739,-16.1752,-16.1594,-16.2167,-16.1955,-16.2021,-16.2285,-16.2858,-16.29,-16.2939,-16.3282,-16.337,-16.3445,0,0,0,0,0,0,-16.0834,-16.0916,-16.1103,-16.119,-16.126,-16.1766,-16.1422,-16.1413,-16.1532,-16.1497,-16.1597,-16.1597,-16.1538,-16.1916,-16.1977,-16.223,-16.1754,-16.2875,-16.291,-16.2941,-16.3312,-16.3385,-16.3447,0,0,0,0,0,-16.0854,-16.092,-16.1441,-16.1184,-16.1244,-16.1243,-16.1406,-16.1396,-16.1486,-16.1508,-16.1503,-16.1421,-16.1548,-16.1593,-16.1952,-16.2204,-16.1712,-16.1735,-16.2897,-16.2925,-16.295,-16.3348,0,0,0,0,0,0,-16.0869,-16.0911,-16.1451,-16.1467,-16.103,-16.1212,-16.1239,-16.1382,-16.1487,-16.1488,-16.1325,-16.1297,-16.1559,-16.1592,-16.1628,-16.22,-16.1677,-16.1701,-16.1715,-16.2919,-16.294,-16.296,0,0,0,0,0,0,-16.0875,-16.0926,-16.1459,-16.1269,-16.1262,-16.1185,-16.1209,-16.1501,-16.1491,-16.1298,-16.1277,-16.1312,-16.1503,-16.1594,-16.1621,-16.208,-16.1651,-16.1673,-16.1688,-16.1698,-16.2936,-16.2953,0,0,0,0,0,0,-16.0895,-16.0939,-16.1264,-16.1259,-16.1252,-16.142,-16.1441,-16.1765,-16.1333,-16.1296,-16.1291,-16.1272,-16.151,-16.1535,-16.1617,-16.2066,-16.2077,-16.1651,-16.1667,-16.1677,-16.1684,0,0,0,0,0,0,0,-16.0911,-16.0638,-16.136,-16.1251,-16.1244,-16.161,-16.1614,-16.1619,-16.1328,-16.1312,-16.1296,-16.128,-16.1524,-16.1548,-16.1573,-16.2055,0,0,-16.1649,-16.166,0,0,0,0,0,0,0,0,-16.0617,-16.0633,-16.1361,-16.1364,-16.1367,-16.1611,-16.1614,-16.1618,-16.1326,-16.1312,-16.1299,-16.1287,-16.153,-16.155,-16.157,0,0,0,0,0,0,0,0,0,0,0,0,0,0,0,-16.1361,-16.1364,0,-16.1611,-16.1614,-16.1617,-16.1324,-16.1313,-16.1302,-16.1292,-16.1536,-16.1552,-16.1568,0,0,0,0,0,0,0,0,0,0,0,0,0,0,0,0,0,0,0,0,0,0,0,0,0,0,0,0,0,0,0,0,0,0,0,0,0,0,0,0,0,0,0,0,0,0,0,0,0,0,0,0,0,0,0,0,0,0,0,0,0,0,0,0,0,0,0,0,0]}]]]